RPC2706 RPLC-RPLL

Flight info

Callsign RPC2706
Flight time N/A
Altitude 3500
Route VFR TMA
Aircraft C152/L-SFG/C

Departure

Time N/A
Airport Clark International Airport / Clark Air Base (RPLC)

Arrival

Time 2026-04-30 14:24
Airport Ninoy Aquino International Airport (RPLL)
Time Latitude Longitude Altitude Speed Heading
2026-04-30 14:07 14.41122 120.62388 1512 ft 81 kts 81°
2026-04-30 14:07 14.41240 120.62995 1450 ft 89 kts 80°
2026-04-30 14:07 14.41350 120.63618 1402 ft 86 kts 83°
2026-04-30 14:08 14.41585 120.64773 1417 ft 80 kts 75°
2026-04-30 14:08 14.41745 120.65337 1412 ft 87 kts 73°
2026-04-30 14:08 14.42118 120.66559 1384 ft 87 kts 70°
2026-04-30 14:09 14.42190 120.66744 1428 ft 84 kts 71°
2026-04-30 14:09 14.42336 120.67142 1465 ft 84 kts 74°
2026-04-30 14:09 14.42662 120.68377 1477 ft 91 kts 77°
2026-04-30 14:10 14.42832 120.69016 1473 ft 93 kts 75°
2026-04-30 14:10 14.43037 120.69660 1435 ft 95 kts 72°
2026-04-30 14:10 14.43224 120.70273 1415 ft 88 kts 78°
2026-04-30 14:10 14.43333 120.70877 1429 ft 82 kts 82°
2026-04-30 14:11 14.43426 120.71441 1428 ft 81 kts 81°
2026-04-30 14:11 14.43543 120.72003 1418 ft 78 kts 79°
2026-04-30 14:11 14.43674 120.72550 1393 ft 80 kts 79°
2026-04-30 14:11 14.43798 120.73106 1413 ft 78 kts 79°
2026-04-30 14:12 14.43927 120.73646 1414 ft 78 kts 77°
2026-04-30 14:12 14.44073 120.74192 1444 ft 79 kts 77°
2026-04-30 14:12 14.44211 120.74746 1485 ft 82 kts 73°
2026-04-30 14:12 14.44351 120.75119 1488 ft 86 kts 70°
2026-04-30 14:13 14.44635 120.75905 1486 ft 91 kts 70°
2026-04-30 14:13 14.44841 120.76512 1431 ft 88 kts 76°
2026-04-30 14:13 14.44978 120.77110 1449 ft 87 kts 82°
2026-04-30 14:13 14.45035 120.77751 1414 ft 90 kts 89°
2026-04-30 14:14 14.44998 120.78357 1457 ft 82 kts 96°
2026-04-30 14:14 14.44920 120.78943 1467 ft 84 kts 96°
2026-04-30 14:14 14.44850 120.79544 1461 ft 86 kts 97°
2026-04-30 14:14 14.44780 120.80164 1465 ft 88 kts 99°
2026-04-30 14:15 14.44694 120.80774 1456 ft 86 kts 101°
2026-04-30 14:15 14.44585 120.81397 1417 ft 88 kts 100°
2026-04-30 14:15 14.44468 120.82030 1354 ft 91 kts 100°
2026-04-30 14:15 14.44351 120.82594 1453 ft 73 kts 101°
2026-04-30 14:16 14.44266 120.83112 1426 ft 80 kts 98°
2026-04-30 14:16 14.44194 120.83719 1450 ft 84 kts 99°
2026-04-30 14:16 14.44124 120.84328 1492 ft 89 kts 96°
2026-04-30 14:16 14.44050 120.84969 1511 ft 91 kts 97°
2026-04-30 14:17 14.43962 120.85603 1505 ft 88 kts 97°
2026-04-30 14:17 14.43900 120.86218 1502 ft 86 kts 98°
2026-04-30 14:17 14.43830 120.86842 1449 ft 90 kts 98°
2026-04-30 14:17 14.43733 120.87477 1471 ft 88 kts 98°
2026-04-30 14:18 14.43602 120.88100 1678 ft 88 kts 99°
2026-04-30 14:18 14.43651 120.88715 1785 ft 88 kts 68°
2026-04-30 14:18 14.44260 120.89892 1808 ft 95 kts 60°
2026-04-30 14:19 14.44902 120.90778 1878 ft 98 kts 59°
2026-04-30 14:19 14.45245 120.91375 1777 ft 95 kts 66°
2026-04-30 14:19 14.45518 120.91971 1923 ft 90 kts 66°
2026-04-30 14:20 14.45865 120.92746 2015 ft 90 kts 71°
2026-04-30 14:20 14.46128 120.93317 2071 ft 86 kts 65°
2026-04-30 14:20 14.46570 120.94269 1740 ft 88 kts 66°
2026-04-30 14:21 14.46947 120.94982 1469 ft 85 kts 63°
2026-04-30 14:21 14.47140 120.95314 1339 ft 77 kts 62°
2026-04-30 14:21 14.47745 120.96371 930 ft 75 kts 63°
2026-04-30 14:22 14.47921 120.96680 897 ft 73 kts 62°
2026-04-30 14:22 14.48416 120.97590 691 ft 68 kts 61°
2026-04-30 14:22 14.48647 120.97965 652 ft 59 kts 65°
2026-04-30 14:23 14.49035 120.98677 550 ft 63 kts 60°
2026-04-30 14:23 14.49418 120.99369 338 ft 55 kts 66°
2026-04-30 14:24 14.49826 121.00090 116 ft 61 kts 64°
2026-04-30 14:24 14.50027 121.00443 67 ft 49 kts 64°
2026-04-30 14:25 14.50281 121.00899 58 ft 29 kts 60°
2026-04-30 14:25 14.50453 121.01204 62 ft 13 kts 42°
2026-04-30 14:26 14.50569 121.01153 63 ft 9 kts
2026-04-30 14:26 14.50607 121.01209 63 ft 15 kts 60°
2026-04-30 14:26 14.50785 121.01529 58 ft 23 kts 60°
2026-04-30 14:27 14.50866 121.01673 62 ft 25 kts 60°
2026-04-30 14:27 14.50942 121.01808 62 ft 12 kts 56°
2026-04-30 14:27 14.51019 121.01792 56 ft 23 kts 315°
2026-04-30 14:28 14.51424 121.01375 58 ft 44 kts 315°
2026-04-30 14:28 14.51648 121.01142 59 ft 46 kts 313°
2026-04-30 14:28 14.51859 121.00923 61 ft 41 kts 315°
2026-04-30 14:28 14.52047 121.00730 60 ft 31 kts 313°
2026-04-30 14:29 14.51993 121.00615 62 ft 27 kts 188°
2026-04-30 14:29 14.51822 121.00620 61 ft 0 kts 45°